Weather in Zapadnaya Dvina

Russia / Tver Oblast     56°15′34″N   32°04′16″E
temp.,
°C
wind,
m/s
gust,
m/s
humid.,
%
clouds,
%
prec.,
mm/h
press.,
hPa
HPBL,
m
7 march, sun
sun700:00−4sw71592100 0.8 10081199
03:00−3wsw81690100 2.2 10031158
06:00−2wsw81693100 2.2 9971286
09:00−2nw81390100 5.1 9961051
12:00−2wnw3751100 0.3 9941663
15:00−3wsw61076100 0.4 9941239
18:00−5wnw4117638 0.4 9951009
21:00−6w5127968 0.5 9971020
8 march, mon
mon800:00−6wnw4109298 0.2 997590
03:00−8wnw3109685 0.2 998344
06:00−9nw4118763 0.0 999467
09:00−9nw5108565 0.1 1003827
12:00−7nnw5776100 0.1 1005935
15:00−6nnw5776100 0.1 1008999
18:00−8nnw4883100 0.1 1010889
21:00−11nnw3993100 0.1 1013566
9 march, tue
tue900:00−12nnw389444 0.0 1015328
03:00−14nnw269656 0.0 1016206
06:00−16nnw259723 0.0 1018187
09:00−14nnw248920 0.0 1019268
12:00−10nw247253 0.0 1020629
15:00−8nw347066 0.0 1021929
18:00−9nnw2382100 0.0 1020148
21:00−11ene118898 0.0 102222
10 march, wed
wed1000:00−11se2591100 0.1 1022235
03:00−11se4893100 0.6 1022381
06:00−12ese4994100 1.8 1021402
09:00−12ese5993100 3.5 1021357
12:00−10ese4890100 1.3 1022434
15:00−8ese5889100 1.6 1022521
18:00−9ese5990100 0.1 1021492
21:00−11ese51192100 0.4 1022445
11 march, thu
thu1100:00−11ese4109399 0.3 1021387
03:00−11se479499 0.6 1020260
06:00−10se379599 0.3 1019205
09:00−6sse369499 0.8 1019372
12:00−3ssw4791100 0.4 1017583
15:00−1ssw5876100 0.5 10161175
18:00−2s5117899 0.1 1013981
21:00−4s61486100 0.1 1011898